GW7104 Weather Reports


time (UTC)temp
C
wind
direction
speed
KPH
gust
KPH
rain 1hr
cm
rain 24hr
cm
rain mn
cm
humidity
%
barometer
mb
20260508220629 20 108 4.8 4.8 0.00 0.00 0.00 35 1010.1
20260508220126 20 180 4.8 4.8 0.00 0.00 0.00 36 1010.1
20260508215622 21 18 4.8 4.8 0.00 0.00 0.00 37 1010.1
20260508215119 21 288 3.2 3.2 0.00 0.00 0.00 35 1010.1
20260508214616 21 216 4.8 4.8 0.00 0.00 0.00 34 1010.5
20260508214113 21 228 3.2 3.2 0.00 0.00 0.00 37 1010.1
20260508213610 20 149 4.8 4.8 0.00 0.00 0.00 35 1010.1
20260508213106 20 60 0.0 0.0 0.00 0.00 0.00 36 1009.8
20260508212602 21 234 9.7 11.3 0.00 0.00 0.00 35 1010.5
20260508212059 21 186 3.2 3.2 0.00 0.00 0.00 34 1010.1
20260508211554 21 125 8.0 8.0 0.00 0.00 0.00 34 1010.5
20260508211051 21 258 6.4 6.4 0.00 0.00 0.00 35 1010.5
20260508210547 21 224 0.0 0.0 0.00 0.00 0.00 34 1010.5
20260508210045 21 207 6.4 6.4 0.00 0.00 0.00 33 1010.8
20260508205542 21 126 4.8 4.8 0.00 0.00 0.00 34 1010.8
20260508205038 21 197 4.8 4.8 0.00 0.00 0.00 36 1010.8
20260508204535 21 121 9.7 9.7 0.00 0.00 0.00 34 1011.2
20260508204031 21 157 0.0 0.0 0.00 0.00 0.00 34 1010.8
20260508203527 21 96 4.8 4.8 0.00 0.00 0.00 32 1011.2
20260508203023 21 216 3.2 3.2 0.00 0.00 0.00 34 1011.2
20260508202520 20 210 4.8 4.8 0.00 0.00 0.00 33 1010.8
20260508202017 20 188 6.4 6.4 0.00 0.00 0.00 33 1011.5
20260508201514 20 200 11.3 12.9 0.00 0.00 0.00 34 1011.5
20260508201010 20 280 3.2 3.2 0.00 0.00 0.00 34 1011.5
20260508200508 20 150 3.2 3.2 0.00 0.00 0.00 33 1011.2
20260508200003 21 142 6.4 6.4 0.00 0.00 0.00 32 1011.5
20260508195500 21 211 4.8 4.8 0.00 0.00 0.00 33 1011.5
20260508194956 21 181 4.8 4.8 0.00 0.00 0.00 35 1011.5
20260508194453 22 107 6.4 6.4 0.00 0.00 0.00 31 1011.5
20260508193950 22 201 4.8 4.8 0.00 0.00 0.00 32 1011.5
20260508193447 22 174 8.0 9.7 0.00 0.00 0.00 30 1011.2
20260508192943 23 240 0.0 0.0 0.00 0.00 0.00 30 1011.5
20260508192440 22 176 3.2 3.2 0.00 0.00 0.00 32 1011.5
20260508191937 22 309 3.2 3.2 0.00 0.00 0.00 30 1011.8
20260508191435 22 193 8.0 8.0 0.00 0.00 0.00 28 1011.8
20260508190931 22 354 4.8 4.8 0.00 0.00 0.00 30 1011.8
20260508190428 22 318 11.3 12.9 0.00 0.00 0.00 30 1012.2
20260508185924 22 42 4.8 4.8 0.00 0.00 0.00 33 1011.8
20260508185422 22 150 4.8 4.8 0.00 0.00 0.00 32 1012.2
20260508184919 22 295 4.8 4.8 0.00 0.00 0.00 31 1012.2
20260508184416 21 250 19.3 22.5 0.00 0.00 0.00 31 1012.2
20260508183913 21 176 4.8 4.8 0.00 0.00 0.00 31 1012.5
20260508183410 21 191 11.3 11.3 0.00 0.00 0.00 31 1012.2
20260508182905 21 132 9.7 11.3 0.00 0.00 0.00 29 1012.5
20260508182402 22 318 6.4 6.4 0.00 0.00 0.00 35 1012.5
20260508181858 22 345 4.8 4.8 0.00 0.00 0.00 32 1012.5
20260508181355 22 318 6.4 6.4 0.00 0.00 0.00 34 1013.0
20260508180852 22 234 8.0 9.7 0.00 0.00 0.00 33 1013.0
20260508180349 21 264 8.0 8.0 0.00 0.00 0.00 41 1013.0
20260508175844 22 332 6.4 6.4 0.00 0.00 0.00 35 1013.0
20260508175341 21 199 9.7 9.7 0.00 0.00 0.00 34 1013.0
20260508174840 21 168 12.9 14.5 0.00 0.00 0.00 35 1013.3
20260508174336 21 234 11.3 11.3 0.00 0.00 0.00 35 1013.3
20260508173833 21 174 6.4 6.4 0.00 0.00 0.00 34 1013.3
20260508173330 21 192 9.7 11.3 0.00 0.00 0.00 33 1013.6
20260508172826 21 158 8.0 9.7 0.00 0.00 0.00 34 1013.6
20260508172323 21 194 4.8 4.8 0.00 0.00 0.00 34 1013.6
20260508171820 21 149 4.8 4.8 0.00 0.00 0.00 35 1014.0
20260508171316 21 162 9.7 9.7 0.00 0.00 0.00 32 1014.0
20260508170813 22 169 11.3 12.9 0.00 0.00 0.00 33 1014.0
20260508170311 22 216 6.4 6.4 0.00 0.00 0.00 34 1014.3
20260508165808 21 322 6.4 6.4 0.00 0.00 0.00 35 1014.3
20260508165306 21 54 3.2 3.2 0.00 0.00 0.00 37 1014.3
20260508164800 20 170 8.0 8.0 0.00 0.00 0.00 33 1014.3
20260508164257 21 159 4.8 4.8 0.00 0.00 0.00 35 1014.3
20260508163755 21 258 6.4 6.4 0.00 0.00 0.00 34 1014.3
20260508163253 20 18 4.8 4.8 0.00 0.00 0.00 36 1014.6
20260508162748 21 258 12.9 16.1 0.00 0.00 0.00 36 1014.6
20260508162245 21 317 3.2 3.2 0.00 0.00 0.00 37 1014.6
20260508161742 20 234 4.8 4.8 0.00 0.00 0.00 37 1015.0
20260508161240 20 192 6.4 6.4 0.00 0.00 0.00 35 1015.0
20260508160737 20 187 9.7 11.3 0.00 0.00 0.00 36 1015.0
20260508160236 20 130 9.7 9.7 0.00 0.00 0.00 36 1015.0
20260508155731 21 201 4.8 4.8 0.00 0.00 0.00 37 1015.0
20260508155229 21 135 9.7 9.7 0.00 0.00 0.00 38 1015.0
20260508154726 20 198 0.0 0.0 0.00 0.00 0.00 39 1015.0
20260508154223 19 36 6.4 6.4 0.00 0.00 0.00 37 1015.3
20260508153720 20 197 6.4 6.4 0.00 0.00 0.00 37 1015.0
20260508153217 20 224 9.7 11.3 0.00 0.00 0.00 37 1015.3
20260508152714 19 152 6.4 6.4 0.00 0.00 0.00 38 1015.3
20260508152209 19 90 4.8 4.8 0.00 0.00 0.00 36 1015.3
20260508151706 19 121 11.3 12.9 0.00 0.00 0.00 37 1015.3
20260508151203 19 211 4.8 4.8 0.00 0.00 0.00 38 1015.7
20260508150659 20 164 4.8 4.8 0.00 0.00 0.00 35 1015.7
20260508150156 19 60 4.8 4.8 0.00 0.00 0.00 37 1015.3
20260508145652 20 42 3.2 3.2 0.00 0.00 0.00 35 1015.3
20260508145148 20 210 3.2 3.2 0.00 0.00 0.00 41 1015.7
20260508144646 19 204 4.8 4.8 0.00 0.00 0.00 36 1015.3
20260508144143 18 144 0.0 0.0 0.00 0.00 0.00 36 1015.3
20260508143641 18 183 11.3 11.3 0.00 0.00 0.00 35 1015.7
20260508143138 18 156 4.8 4.8 0.00 0.00 0.00 39 1015.7
20260508142634 18 205 6.4 6.4 0.00 0.00 0.00 37 1015.7
20260508142131 18 268 6.4 6.4 0.00 0.00 0.00 39 1016.0
20260508141627 18 177 4.8 4.8 0.00 0.00 0.00 40 1016.0
20260508141125 17 201 9.7 11.3 0.00 0.00 0.00 38 1015.7
20260508140622 17 156 4.8 4.8 0.00 0.00 0.00 40 1016.0
20260508140119 17 54 4.8 4.8 0.00 0.00 0.00 43 1016.0
20260508135614 17 210 4.8 4.8 0.00 0.00 0.00 41 1016.0
20260508135110 16 240 4.8 4.8 0.00 0.00 0.00 44 1015.7
20260508134608 16 122 0.0 0.0 0.00 0.00 0.00 46 1016.0
20260508134104 16 156 4.8 4.8 0.00 0.00 0.00 49 1016.0
20260508133601 15 162 3.2 3.2 0.00 0.00 0.00 49 1016.0
20260508133059 15 151 8.0 9.7 0.00 0.00 0.00 46 1016.0
20260508132556 15 354 3.2 3.2 0.00 0.00 0.00 46 1016.0
20260508132053 15 210 3.2 3.2 0.00 0.00 0.00 48 1016.0
20260508131548 14 207 3.2 3.2 0.00 0.00 0.00 49 1016.0
20260508131045 14 207 3.2 3.2 0.00 0.00 0.00 48 1016.0
20260508130542 14 108 3.2 3.2 0.00 0.00 0.00 48 1016.0
20260508130039 13 174 4.8 4.8 0.00 0.00 0.00 49 1016.0
20260508125534 13 222 6.4 6.4 0.00 0.00 0.00 52 1016.0
20260508125032 13 211 3.2 3.2 0.00 0.00 0.00 50 1016.0
20260508124530 12 179 3.2 3.2 0.00 0.00 0.00 56 1015.7
20260508124027 11 194 0.0 0.0 0.00 0.00 0.00 56 1016.0
20260508123525 11 204 6.4 6.4 0.00 0.00 0.00 55 1016.0
20260508123021 11 210 6.4 6.4 0.00 0.00 0.00 56 1016.0
20260508122519 11 234 3.2 3.2 0.00 0.00 0.00 54 1015.7
20260508122016 10 212 4.8 4.8 0.00 0.00 0.00 57 1016.0
20260508121514 10 228 4.8 4.8 0.00 0.00 0.00 60 1015.7
20260508121011 9 173 4.8 4.8 0.00 0.00 0.00 62 1016.0
20260508120508 9 240 0.0 0.0 0.00 0.00 0.00 64 1015.7
20260508120007 10 240 0.0 0.0 0.00 0.00 0.00 61 1015.7
20260508115504 9 210 3.2 3.2 0.00 0.00 0.00 60 1015.7
20260508115000 8 240 0.0 0.0 0.00 0.00 0.00 64 1015.7
20260508114457 7 240 0.0 0.0 0.00 0.00 0.00 71 1015.7
20260508113954 7 240 0.0 0.0 0.00 0.00 0.00 75 1015.7
20260508113451 7 240 0.0 0.0 0.00 0.00 0.00 75 1015.3
20260508112949 7 240 0.0 0.0 0.00 0.00 0.00 73 1015.3
20260508112445 7 240 0.0 0.0 0.00 0.00 0.00 75 1015.3
20260508111942 7 240 0.0 0.0 0.00 0.00 0.00 73 1015.3
20260508111439 7 240 0.0 0.0 0.00 0.00 0.00 73 1015.3
20260508110936 7 240 0.0 0.0 0.00 0.00 0.00 75 1015.0
20260508110434 7 240 0.0 0.0 0.00 0.00 0.00 74 1015.0
20260508105933 7 240 0.0 0.0 0.00 0.00 0.00 75 1015.3
20260508105430 7 240 3.2 3.2 0.00 0.00 0.00 73 1015.3
20260508104927 7 240 0.0 0.0 0.00 0.00 0.00 73 1015.3
20260508104425 7 240 0.0 0.0 0.00 0.00 0.00 72 1015.3
20260508103921 7 276 0.0 0.0 0.00 0.00 0.00 73 1015.0
20260508103418 7 276 0.0 0.0 0.00 0.00 0.00 75 1015.0
20260508102915 7 282 0.0 0.0 0.00 0.00 0.00 76 1015.0
20260508102414 7 282 0.0 0.0 0.00 0.00 0.00 75 1015.0
20260508101911 7 282 0.0 0.0 0.00 0.00 0.00 75 1015.0
20260508101408 6 320 4.8 4.8 0.00 0.00 0.00 75 1015.3
20260508100905 6 347 0.0 0.0 0.00 0.00 0.00 77 1015.0
20260508100404 6 347 0.0 0.0 0.00 0.00 0.00 78 1015.3
20260508095859 6 347 0.0 0.0 0.00 0.00 0.00 80 1015.3
20260508095357 5 347 0.0 0.0 0.00 0.00 0.00 79 1015.3
20260508094854 5 347 0.0 0.0 0.00 0.00 0.00 82 1015.0
20260508094351 5 347 0.0 0.0 0.00 0.00 0.00 82 1015.0
20260508093848 5 347 0.0 0.0 0.00 0.00 0.00 83 1015.0
20260508093345 5 347 0.0 0.0 0.00 0.00 0.00 83 1015.0
20260508092842 5 347 0.0 0.0 0.00 0.00 0.00 84 1015.0
20260508092340 5 347 0.0 0.0 0.00 0.00 0.00 83 1015.0
20260508091838 5 347 0.0 0.0 0.00 0.00 0.00 84 1015.0
20260508091334 5 347 0.0 0.0 0.00 0.00 0.00 84 1015.0
20260508090832 5 347 0.0 0.0 0.00 0.00 0.00 84 1015.0
20260508090331 5 347 0.0 0.0 0.00 0.00 0.00 85 1015.0
20260508085831 4 347 0.0 0.0 0.00 0.00 0.00 87 1015.0
20260508085329 4 347 0.0 0.0 0.00 0.00 0.00 88 1015.0
20260508084825 4 347 0.0 0.0 0.00 0.00 0.00 88 1015.0
20260508084322 4 347 0.0 0.0 0.00 0.00 0.00 88 1015.3
20260508083820 4 347 0.0 0.0 0.00 0.00 0.00 88 1015.0
20260508083317 4 347 0.0 0.0 0.00 0.00 0.00 88 1015.0
20260508082816 4 347 0.0 0.0 0.00 0.00 0.00 87 1015.0
20260508082314 4 347 0.0 0.0 0.00 0.00 0.00 87 1015.0
20260508081812 4 347 0.0 0.0 0.00 0.00 0.00 86 1015.0
20260508081308 4 347 0.0 0.0 0.00 0.00 0.00 86 1015.0
20260508080805 4 347 0.0 0.0 0.00 0.00 0.00 86 1014.6
20260508080304 4 347 0.0 0.0 0.00 0.00 0.00 87 1015.0
20260508075759 4 347 0.0 0.0 0.00 0.00 0.00 86 1015.0
20260508075256 5 347 0.0 0.0 0.00 0.00 0.00 86 1015.0
20260508074754 5 347 0.0 0.0 0.00 0.00 0.00 85 1015.0
20260508074251 5 347 0.0 0.0 0.00 0.00 0.00 85 1015.0
20260508073748 5 347 0.0 0.0 0.00 0.00 0.00 86 1014.6
20260508073246 5 347 0.0 0.0 0.00 0.00 0.00 85 1015.0
20260508072742 4 347 0.0 0.0 0.00 0.00 0.00 86 1015.0
20260508072239 5 347 0.0 0.0 0.00 0.00 0.00 85 1015.0
20260508071736 5 347 0.0 0.0 0.00 0.00 0.00 85 1015.0
20260508071235 5 347 0.0 0.0 0.00 0.00 0.00 84 1015.0
20260508070732 5 347 0.0 0.0 0.00 0.00 0.00 84 1015.0
20260508070231 4 347 0.0 0.0 0.00 0.00 0.00 84 1015.0
20260508065727 4 347 0.0 0.0 0.00 0.00 0.00 85 1015.0
20260508065225 5 347 0.0 0.0 0.00 0.00 0.00 85 1015.3
20260508064722 5 347 0.0 0.0 0.00 0.00 0.00 85 1015.3
20260508064221 5 347 0.0 0.0 0.00 0.00 0.00 86 1015.7
20260508063718 5 347 0.0 0.0 0.00 0.00 0.00 86 1015.7
20260508063215 5 347 0.0 0.0 0.00 0.00 0.00 85 1015.3
20260508062713 5 347 0.0 0.0 0.00 0.00 0.00 84 1015.7
20260508062210 5 347 0.0 0.0 0.00 0.00 0.00 84 1015.7
20260508061707 5 347 0.0 0.0 0.00 0.00 0.00 83 1015.7
20260508061204 5 347 0.0 0.0 0.00 0.00 0.00 84 1015.7
20260508060702 5 347 0.0 0.0 0.00 0.00 0.00 83 1015.7
20260508060158 5 347 0.0 0.0 0.00 0.00 0.00 82 1016.0
20260508055653 5 347 0.0 0.0 0.00 0.00 0.00 81 1015.7
20260508055151 5 347 0.0 0.0 0.00 0.00 0.00 81 1016.0
20260508054647 5 347 0.0 0.0 0.00 0.00 0.00 81 1016.0
20260508054144 5 347 0.0 0.0 0.00 0.00 0.00 80 1015.7
20260508053641 6 347 0.0 0.0 0.00 0.00 0.00 79 1016.0
20260508053139 6 347 0.0 0.0 0.00 0.00 0.00 79 1015.7
20260508052636 6 347 0.0 0.0 0.00 0.00 0.00 78 1015.7
20260508052133 6 347 0.0 0.0 0.00 0.00 0.00 78 1015.7
20260508051629 6 347 0.0 0.0 0.00 0.00 0.00 78 1015.7
20260508051125 6 347 0.0 0.0 0.00 0.00 0.00 76 1015.7
20260508050621 6 347 0.0 0.0 0.00 0.00 0.00 77 1015.3
20260508050119 6 347 0.0 0.0 0.00 0.00 0.00 77 1015.3
20260508045614 6 347 0.0 0.0 0.00 0.00 0.00 76 1015.3
20260508045113 6 347 0.0 0.0 0.00 0.00 0.00 77 1015.7
20260508044610 6 347 0.0 0.0 0.00 0.00 0.00 77 1015.7
20260508044106 6 347 0.0 0.0 0.00 0.00 0.00 77 1015.7
20260508043602 6 347 0.0 0.0 0.00 0.00 0.00 78 1015.7
20260508043100 6 347 0.0 0.0 0.00 0.00 0.00 77 1015.3
20260508042556 6 347 0.0 0.0 0.00 0.00 0.00 76 1015.7
20260508042054 6 347 0.0 0.0 0.00 0.00 0.00 75 1015.7
20260508041550 6 347 0.0 0.0 0.00 0.00 0.00 77 1015.3
20260508041046 6 347 0.0 0.0 0.00 0.00 0.00 77 1015.3
20260508040543 6 347 0.0 0.0 0.00 0.00 0.00 76 1015.3
20260508040041 6 347 0.0 0.0 0.00 0.00 0.00 75 1015.3
20260508035537 6 347 0.0 0.0 0.00 0.00 0.00 79 1015.3
20260508035035 6 347 0.0 0.0 0.00 0.00 0.00 79 1015.3
20260508034532 6 347 0.0 0.0 0.00 0.00 0.00 78 1015.3
20260508034029 6 347 0.0 0.0 0.00 0.00 0.00 77 1015.7
20260508033526 6 347 0.0 0.0 0.00 0.00 0.00 77 1015.7
20260508033025 6 347 0.0 0.0 0.00 0.00 0.00 77 1015.7
20260508032521 6 347 0.0 0.0 0.00 0.00 0.00 76 1015.7
20260508032019 6 347 0.0 0.0 0.00 0.00 0.00 75 1015.3
20260508031516 6 347 0.0 0.0 0.00 0.00 0.00 74 1015.7
20260508031011 6 347 0.0 0.0 0.00 0.00 0.00 73 1015.7
20260508030508 6 347 0.0 0.0 0.00 0.00 0.00 73 1015.3
20260508030006 7 347 0.0 0.0 0.00 0.00 0.00 73 1015.7
20260508025502 7 347 0.0 0.0 0.00 0.00 0.00 71 1015.3
20260508024959 7 347 0.0 0.0 0.00 0.00 0.00 74 1015.3
20260508024454 7 347 0.0 0.0 0.00 0.00 0.00 72 1015.7
20260508023952 7 347 0.0 0.0 0.00 0.00 0.00 72 1015.7
20260508023448 7 347 0.0 0.0 0.00 0.00 0.00 75 1015.3
20260508022946 7 347 0.0 0.0 0.00 0.00 0.00 75 1015.3
20260508022441 7 347 0.0 0.0 0.00 0.00 0.00 76 1015.7
20260508021938 7 347 0.0 0.0 0.00 0.00 0.00 72 1015.3
20260508021435 7 347 0.0 0.0 0.00 0.00 0.00 71 1015.3
20260508020930 7 347 0.0 0.0 0.00 0.00 0.00 72 1015.3
20260508020429 7 347 0.0 0.0 0.00 0.00 0.00 71 1015.7
20260508015925 7 347 0.0 0.0 0.00 0.00 0.00 70 1015.3
20260508015423 7 347 0.0 0.0 0.00 0.00 0.00 69 1015.7
20260508014919 7 347 0.0 0.0 0.00 0.00 0.00 67 1015.3
20260508014417 8 347 0.0 0.0 0.00 0.00 0.00 66 1015.3
20260508013917 8 347 0.0 0.0 0.00 0.00 0.00 63 1015.7
20260508013414 8 347 0.0 0.0 0.00 0.00 0.00 64 1015.7
20260508012911 8 347 0.0 0.0 0.00 0.00 0.00 63 1015.0
20260508012408 8 347 0.0 0.0 0.00 0.00 0.00 62 1015.3
20260508011906 8 347 0.0 0.0 0.00 0.00 0.00 61 1015.3
20260508011404 8 347 0.0 0.0 0.00 0.00 0.00 59 1015.3
20260508010900 8 347 0.0 0.0 0.00 0.00 0.00 58 1015.3
20260508010358 8 347 0.0 0.0 0.00 0.00 0.00 58 1015.0
20260508005855 9 347 0.0 0.0 0.00 0.00 0.00 58 1015.0
20260508005351 9 347 0.0 0.0 0.00 0.00 0.00 56 1015.0
20260508004848 10 347 0.0 0.0 0.00 0.00 0.00 57 1015.0
20260508004344 10 347 0.0 0.0 0.00 0.00 0.00 58 1015.0
20260508003841 10 347 0.0 0.0 0.00 0.00 0.00 54 1015.0
20260508003338 10 347 0.0 0.0 0.00 0.00 0.00 55 1015.0
20260508002835 10 347 0.0 0.0 0.00 0.00 0.00 50 1015.3
20260508002332 11 347 0.0 0.0 0.00 0.00 0.00 51 1015.0
20260508001828 11 347 0.0 0.0 0.00 0.00 0.00 52 1015.0
20260508001324 12 347 0.0 0.0 0.00 0.00 0.00 52 1015.0
20260508000820 12 347 0.0 0.0 0.00 0.00 0.00 47 1015.0
20260508000319 12 347 0.0 0.0 0.00 0.00 0.00 42 1015.0
20260507235813 13 347 0.0 0.0 0.00 0.00 0.00 44 1014.6
20260507235311 13 347 0.0 0.0 0.00 0.00 0.00 40 1014.6
20260507234808 13 348 3.2 3.2 0.00 0.00 0.00 39 1014.6
20260507234304 13 348 0.0 0.0 0.00 0.00 0.00 42 1014.6
20260507233800 13 332 3.2 3.2 0.00 0.00 0.00 34 1014.6
20260507233259 13 6 0.0 0.0 0.00 0.00 0.00 35 1014.6
20260507232757 13 6 0.0 0.0 0.00 0.00 0.00 35 1014.6
20260507232253 14 6 3.2 3.2 0.00 0.00 0.00 34 1014.3
20260507231749 14 96 0.0 0.0 0.00 0.00 0.00 35 1014.6
20260507231246 14 140 0.0 0.0 0.00 0.00 0.00 38 1014.3
20260507230743 14 140 0.0 0.0 0.00 0.00 0.00 35 1014.6
20260507230241 14 144 0.0 0.0 0.00 0.00 0.00 34 1014.3
20260507225740 14 168 0.0 0.0 0.00 0.00 0.00 33 1014.6
20260507225237 14 354 0.0 0.0 0.00 0.00 0.00 37 1014.6
20260507224732 15 48 0.0 0.0 0.00 0.00 0.00 35 1015.0
20260507224229 15 48 0.0 0.0 0.00 0.00 0.00 34 1014.3
20260507223725 15 60 0.0 0.0 0.00 0.00 0.00 37 1014.6
20260507223222 15 357 0.0 0.0 0.00 0.00 0.00 39 1014.6
20260507222719 15 18 0.0 0.0 0.00 0.00 0.00 37 1014.6
20260507222215 15 318 0.0 0.0 0.00 0.00 0.00 39 1014.6
20260507221712 15 318 0.0 0.0 0.00 0.00 0.00 33 1014.6
20260507221208 15 84 3.2 3.2 0.00 0.00 0.00 33 1014.6